Location: Allonne
(49.4086°N, 2.1143°E)
Time: 20:55:40
(UTC+00:00)

BlueWalker 3 - Pass Details

Date: 11 June 2023
Orbit: 492 x 508 km, 53.2° (Epoch: 22 September)

Event Time Altitude Azimuth Distance (km) Brightness Sun altitude
Rises 21:40:27 0° 294° (WNW) 2,582 6.5 -11.9°
Reaches altitude 10° 21:42:40 10° 289° (WNW) 1,699 5.4 -12.0°
Maximum altitude 21:46:23 49° 214° (SSW) 647 2.3 -12.3°
Enters shadow 21:48:43 21° 146° (SE) 1,181 3.2 -12.5°
